Home   Weather   Halmstad   Past weeks

Flag for Sweden Past Weather in Halmstad, Sweden — Yesterday and Last 2 Weeks

Now
54 °F

Cool.


Feels Like: 53 °F
Forecast: 62 / 67 °F
Wind: 3 mph from East

Location: Halmstad Swedish Air Force Base

Current Time: Aug 17, 2017 at 4:13:14 am

Latest Report: Aug 17, 2017 at 3:20 am


Visibility: N/A

Pressure: 30.12 "Hg

Humidity: 94%

Dew Point: 52 °F

Location of HalmstadLocation

Past Weather in Halmstad — Graph

°F

Halmstad Temperature Yesterday

Maximum temperature yesterday: 68 °F (at 3:20 pm)
Minimum temperature yesterday: 57 °F (at 10:20 pm)
Average temperature yesterday: 63 °F

High & Low Weather Summary for the Past Weeks

 TemperatureHumidityPressure
High75 °F (Aug 8, 12:50 pm)100% (Aug 3, 1:20 pm)30.24 "Hg (Aug 3, 1:20 pm)
Low46 °F (Aug 15, 1:50 am)41% (Aug 8, 2:20 pm)29.56 "Hg (Aug 4, 4:20 am)
Average62 °F79%29.93 "Hg
* Reported Aug 2 1:20 am — Aug 17 1:50 am, Halmstad. Weather by CustomWeather, © 2017

Note: Actual official high and low records may vary slightly from our data, if they occured in-between our weather recording intervals... More about our weather records

Advertising

Halmstad Weather History for the Previous 24 Hours

Scroll right to see more
 ConditionsComfort  
Time TempWeatherWind HumidityBarometerVisibility
1:50 am
Thu, Aug 17
52 °FCool.3 mph94%30.12 "Hg4 mi
1:20 am50 °FFog.3 mph100%30.15 "Hg4 mi
12:50 am55 °FFog.5 mph94%30.15 "Hg2 mi
12:20 am55 °FFog.5 mph100%30.15 "Hg0 mi
11:50 pm
Wed, Aug 16
57 °FCool.5 mph94%30.15 "Hg1 mi
11:20 pm57 °FPassing clouds.3 mph94%30.15 "Hg1 mi
10:50 pm57 °FFog.No wind94%30.15 "Hg0 mi
10:20 pm57 °FCool.No wind94%30.15 "HgN/A
9:50 pm59 °FCool.2 mph88%30.15 "HgN/A
8:50 pm59 °FCool.2 mph88%30.12 "HgN/A
8:20 pm61 °FSunny.5 mph83%30.12 "Hg10 mi
7:50 pm63 °FSunny.5 mph77%30.12 "Hg10 mi
7:20 pm64 °FSunny.8 mph73%30.12 "Hg10 mi
6:50 pm64 °FPassing clouds.10 mph78%30.12 "HgN/A
6:20 pm66 °FPassing clouds.10 mph68%30.12 "HgN/A
5:50 pm66 °FPassing clouds.9 mph68%30.12 "HgN/A
5:20 pm66 °FPassing clouds.12 mph73%30.09 "HgN/A
4:50 pm66 °FPassing clouds.12 mph73%30.12 "HgN/A
4:20 pm66 °FPassing clouds.12 mph73%30.09 "HgN/A
3:50 pm66 °FScattered clouds.13 mph73%30.09 "HgN/A
3:20 pm68 °FPassing clouds.13 mph69%30.09 "HgN/A
2:50 pm66 °FScattered clouds.13 mph73%30.09 "HgN/A
2:20 pm64 °FScattered clouds.12 mph78%30.09 "HgN/A
1:50 pm64 °FScattered clouds.13 mph78%30.09 "HgN/A
1:20 pm66 °FScattered clouds.13 mph73%30.07 "HgN/A
12:50 pm66 °FPartly sunny.12 mph78%30.07 "HgN/A
12:20 pm66 °FBroken clouds.12 mph78%30.07 "HgN/A
11:50 am64 °FScattered clouds.10 mph83%30.07 "HgN/A
11:20 am64 °FScattered clouds.12 mph78%30.07 "HgN/A
10:50 am64 °FBroken clouds.13 mph83%30.07 "HgN/A
10:20 am64 °FBroken clouds.12 mph88%30.04 "HgN/A
9:50 am64 °FBroken clouds.12 mph88%30.04 "HgN/A
9:20 am64 °FBroken clouds.12 mph88%30.01 "HgN/A
8:50 am64 °FScattered clouds.9 mph88%30.01 "HgN/A
7:50 am64 °FBroken clouds.2 mph88%29.98 "HgN/A
7:20 am63 °FBroken clouds.2 mph94%29.98 "HgN/A
6:50 am61 °FMore clouds than sun.No wind94%29.98 "HgN/A
6:20 am61 °FOvercast.3 mph94%29.95 "HgN/A
5:50 am61 °FMostly cloudy.6 mph94%29.95 "HgN/A
5:20 am61 °FPartly cloudy.1 mph94%29.95 "HgN/A
4:50 am61 °FLight rain. Passing clouds.8 mph94%29.95 "HgN/A
4:20 am61 °FPassing clouds.7 mph94%29.95 "HgN/A
Weather by CustomWeather, © 2017

See weather overviewHow to use our weather pages